TimeCDT,TemperatureF,Dew PointF,Humidity,Sea Level PressureIn,VisibilityMPH,Wind Direction,Wind SpeedMPH,Gust SpeedMPH,PrecipitationIn,Events,Conditions,WindDirDegrees,DateUTC
12:10 AM,73.4,66.2,78,29.96,10.0,South,10.4,-,N/A,,Clear,180,2013-05-20 05:10:00
12:30 AM,73.4,66.2,78,29.96,10.0,South,5.8,-,N/A,,Clear,180,2013-05-20 05:30:00
12:50 AM,73.4,66.2,78,29.95,10.0,SSW,10.4,16.1,N/A,,Clear,200,2013-05-20 05:50:00
1:10 AM,73.4,68.0,83,29.95,10.0,South,10.4,-,N/A,,Clear,180,2013-05-20 06:10:00
1:30 AM,73.4,66.2,78,29.94,10.0,South,10.4,16.1,N/A,,Clear,190,2013-05-20 06:30:00
1:50 AM,73.4,66.2,78,29.93,10.0,South,8.1,-,N/A,,Clear,190,2013-05-20 06:50:00
2:10 AM,73.4,66.2,78,29.93,10.0,South,11.5,17.3,N/A,,Clear,190,2013-05-20 07:10:00
2:30 AM,73.4,66.2,78,29.93,10.0,South,9.2,-,N/A,,Clear,180,2013-05-20 07:30:00
2:50 AM,73.4,66.2,78,29.93,10.0,South,6.9,-,N/A,,Clear,190,2013-05-20 07:50:00
3:10 AM,73.4,66.2,78,29.93,10.0,South,6.9,-,N/A,,Clear,190,2013-05-20 08:10:00
3:30 AM,71.6,66.2,83,29.93,10.0,South,5.8,-,N/A,,Clear,180,2013-05-20 08:30:00
3:50 AM,71.6,66.2,83,29.94,9.0,South,5.8,-,N/A,,Clear,180,2013-05-20 08:50:00
4:10 AM,71.6,66.2,83,29.95,8.0,South,4.6,-,N/A,,Clear,170,2013-05-20 09:10:00
4:30 AM,69.8,66.2,88,29.95,7.0,SSE,5.8,-,N/A,,Clear,160,2013-05-20 09:30:00
4:50 AM,69.8,66.2,88,29.95,6.0,SSE,5.8,-,N/A,,Clear,160,2013-05-20 09:50:00
5:10 AM,68.0,66.2,94,29.96,5.0,South,5.8,-,N/A,,Clear,170,2013-05-20 10:10:00
5:30 AM,68.0,66.2,94,29.96,5.0,SE,3.5,-,N/A,,Clear,140,2013-05-20 10:30:00
5:50 AM,68.0,66.2,94,29.98,3.0,SE,3.5,-,N/A,,Clear,130,2013-05-20 10:50:00
6:10 AM,68.0,66.2,94,29.98,2.0,SE,4.6,-,N/A,,Overcast,140,2013-05-20 11:10:00
6:30 AM,68.0,68.0,100,29.99,2.5,South,3.5,-,N/A,,Overcast,170,2013-05-20 11:30:00
6:50 AM,69.8,68.0,94,30.00,2.5,South,4.6,-,N/A,,Overcast,180,2013-05-20 11:50:00
7:10 AM,71.6,68.0,88,30.00,4.0,SSW,4.6,-,N/A,,Overcast,200,2013-05-20 12:10:00
7:30 AM,71.6,68.0,88,30.01,7.0,SSW,6.9,-,N/A,,Overcast,210,2013-05-20 12:30:00
7:50 AM,73.4,68.0,83,30.01,8.0,South,6.9,-,N/A,,Overcast,190,2013-05-20 12:50:00
8:10 AM,73.4,68.0,83,30.01,8.0,SSE,8.1,-,N/A,,Overcast,160,2013-05-20 13:10:00
8:30 AM,73.4,68.0,83,30.02,10.0,South,5.8,-,N/A,,Overcast,180,2013-05-20 13:30:00
8:50 AM,73.4,68.0,83,30.02,10.0,South,8.1,-,N/A,,Overcast,180,2013-05-20 13:50:00
9:10 AM,75.2,68.0,78,30.02,10.0,South,5.8,-,N/A,,Overcast,180,2013-05-20 14:10:00
9:30 AM,75.2,69.8,83,30.02,10.0,South,9.2,-,N/A,,Overcast,180,2013-05-20 14:30:00
9:50 AM,75.2,68.0,78,30.02,10.0,South,5.8,-,N/A,,Overcast,190,2013-05-20 14:50:00
10:10 AM,77.0,69.8,78,30.01,10.0,SSE,6.9,-,N/A,,Mostly Cloudy,160,2013-05-20 15:10:00
10:30 AM,78.8,69.8,74,30.01,10.0,SSE,5.8,-,N/A,,Mostly Cloudy,160,2013-05-20 15:30:00
10:50 AM,80.6,69.8,70,30.00,10.0,South,9.2,16.1,N/A,,Mostly Cloudy,180,2013-05-20 15:50:00
11:10 AM,82.4,68.0,62,30.00,10.0,SW,13.8,-,N/A,,Mostly Cloudy,220,2013-05-20 16:10:00
11:30 AM,82.4,68.0,62,30.00,10.0,SSW,11.5,18.4,N/A,,Mostly Cloudy,200,2013-05-20 16:30:00
11:50 AM,82.4,66.2,58,29.99,10.0,SW,8.1,16.1,N/A,,Scattered Clouds,220,2013-05-20 16:50:00
12:10 PM,82.4,68.0,62,29.98,10.0,SSE,13.8,21.9,N/A,,Mostly Cloudy,160,2013-05-20 17:10:00
12:30 PM,84.2,68.0,58,29.99,10.0,South,10.4,18.4,N/A,,Mostly Cloudy,170,2013-05-20 17:30:00
12:50 PM,84.2,68.0,58,29.99,10.0,SSW,9.2,-,N/A,,Mostly Cloudy,210,2013-05-20 17:50:00
1:30 PM,84.2,68.0,58,29.98,10.0,South,11.5,16.1,N/A,,Mostly Cloudy,180,2013-05-20 18:30:00
1:50 PM,84.2,68.0,58,29.98,10.0,South,9.2,-,N/A,,Mostly Cloudy,190,2013-05-20 18:50:00
2:10 PM,84.2,68.0,58,29.97,10.0,South,9.2,17.3,N/A,,Mostly Cloudy,180,2013-05-20 19:10:00
2:30 PM,86.0,68.0,55,29.96,10.0,SSW,11.5,-,N/A,,Scattered Clouds,200,2013-05-20 19:30:00
2:50 PM,86.0,68.0,55,29.96,10.0,South,8.1,17.3,N/A,,Scattered Clouds,180,2013-05-20 19:50:00
3:10 PM,86.0,68.0,55,29.96,10.0,South,11.5,16.1,N/A,,Scattered Clouds,180,2013-05-20 20:10:00
3:30 PM,86.0,68.0,55,29.95,10.0,South,9.2,16.1,N/A,,Scattered Clouds,180,2013-05-20 20:30:00
3:50 PM,84.2,68.0,58,29.95,10.0,SSW,9.2,-,N/A,,Mostly Cloudy,200,2013-05-20 20:50:00
4:10 PM,86.0,68.0,55,29.94,10.0,South,11.5,17.3,N/A,,Scattered Clouds,180,2013-05-20 21:10:00
4:30 PM,86.0,68.0,55,29.94,10.0,South,11.5,-,N/A,,Mostly Cloudy,180,2013-05-20 21:30:00
4:50 PM,84.2,68.0,58,29.93,10.0,South,10.4,-,N/A,,Mostly Cloudy,170,2013-05-20 21:50:00
5:10 PM,86.0,68.0,55,29.93,10.0,South,11.5,18.4,N/A,,Mostly Cloudy,170,2013-05-20 22:10:00
5:30 PM,84.2,68.0,58,29.92,10.0,South,11.5,-,N/A,,Partly Cloudy,180,2013-05-20 22:30:00
5:50 PM,82.4,68.0,62,29.92,10.0,South,6.9,-,N/A,,Scattered Clouds,170,2013-05-20 22:50:00
6:10 PM,84.2,68.0,58,29.91,10.0,SSE,9.2,-,N/A,,Mostly Cloudy,150,2013-05-20 23:10:00
6:30 PM,84.2,68.0,58,29.90,10.0,SSE,8.1,-,N/A,,Partly Cloudy,150,2013-05-20 23:30:00
6:50 PM,82.4,68.0,62,29.90,10.0,SSE,11.5,-,N/A,,Scattered Clouds,160,2013-05-20 23:50:00
7:10 PM,82.4,68.0,62,29.89,10.0,SSE,8.1,16.1,N/A,,Partly Cloudy,160,2013-05-21 00:10:00
7:30 PM,80.6,68.0,65,29.89,10.0,SSE,9.2,-,N/A,,Clear,150,2013-05-21 00:30:00
7:50 PM,80.6,68.0,65,29.89,10.0,SSE,8.1,-,N/A,,Clear,150,2013-05-21 00:50:00
8:10 PM,78.8,68.0,69,29.89,10.0,SSE,8.1,-,N/A,,Clear,150,2013-05-21 01:10:00
8:30 PM,78.8,68.0,69,29.90,10.0,SSE,5.8,-,N/A,,Clear,160,2013-05-21 01:30:00
8:50 PM,77.0,68.0,74,29.90,10.0,SSE,8.1,-,N/A,,Clear,160,2013-05-21 01:50:00
9:10 PM,77.0,68.0,74,29.90,10.0,SE,6.9,-,N/A,,Clear,140,2013-05-21 02:10:00
9:30 PM,77.0,68.0,74,29.90,10.0,SSE,5.8,-,N/A,,Clear,150,2013-05-21 02:30:00
9:50 PM,77.0,68.0,74,29.91,10.0,SE,5.8,-,N/A,,Clear,140,2013-05-21 02:50:00
10:10 PM,77.0,68.0,74,29.92,10.0,SSE,8.1,-,N/A,,Clear,160,2013-05-21 03:10:00
10:30 PM,75.2,68.0,78,29.92,10.0,SSE,5.8,-,N/A,,Clear,160,2013-05-21 03:30:00
10:50 PM,75.2,68.0,78,29.93,10.0,South,6.9,-,N/A,,Clear,170,2013-05-21 03:50:00
11:10 PM,75.2,68.0,78,29.93,10.0,South,6.9,-,N/A,,Clear,180,2013-05-21 04:10:00
11:30 PM,75.2,68.0,78,29.94,10.0,South,4.6,-,N/A,,Clear,190,2013-05-21 04:30:00
11:50 PM,75.2,68.0,78,29.94,10.0,SSE,5.8,-,N/A,,Clear,160,2013-05-21 04:50:00